Retour au catalogue

SITRO-AIS-23

ActifCommunicationsSSO
NORAD 61742·PAYLOAD·🇷🇺 Russia
Ce nom de satellite n'a pas encore été confirmé par des sources officielles.

Lancé Nov 4, 2024 depuis Vostochny Cosmodrome

Loading…

Prochains Passages (prochaines 24 heures)

TLE

FraisSource: Space-Track

Époque: Sep 14, 2026, 13:53 UTC

1 61742U 24199H   26257.57851089  .00001433  00000-0  13136-3 0  9998
2 61742  97.3220  89.8674 0013545 117.5594 242.7006 14.96282195145139

Suivez SITRO-AIS-23 en temps réel avec AllMySat

Download on the App Store